Tracking 35237 objects as of 4-Sep-2026
HD Live streaming from Space Station
objects crossing your sky now

STARLINK-32829

Track STARLINK-32829 now!
10-day predictions
STARLINK-32829 is classified as:


NORAD ID: 63049
Int'l Code: 2025-034W
Launch date: February 18, 2025
Source: United States (US)
Launch site: AIR FORCE EASTERN TEST RANGE (AFETR)
Your satellite tracking list
Your tracking list is empty




NASA's NSSDC Master Catalog

Two Line Element Set (TLE):
1 63049U 25034W   26247.24272411  .00017903  00000-0  53954-3 0  9999
2 63049  53.1572 158.0366 0001424 107.7819 252.3339 15.34410524 86291
Source of the keplerian elements: AFSPC